Hourly Data Report for March 13, 2021

KUGAARUK CLIMATE
NUNAVUT
Current Station Operator: ECCC - MSC

68°32'15.060" N
89°47'47.020" W
15.80 m
2303094
71407
NBB

Download Data

Hourly Data (March 2021)
Hourly Data Report for March 13, 2021
TIME
LST
Temp Definition
°C
Dew Point Definition
°C
Rel Hum Definition
%
Precip. Amount Definition
mm

Wind Dir Definition
10's deg

Wind Spd Definition
km/h
Visibility Definition
km
Stn Press Definition
kPa
Hmdx Definition


Wind Chill Definition


Weather Definition


00:00 -27.8 -31.0 74 0.0 26 18   101.58   -40 LegendNANA
01:00 -28.2 -31.6 73 0.0 26 18   101.64   -40 LegendNANA
02:00 -29.4 -32.6 74 0.0 26 20   101.67   -42 LegendNANA
03:00 -29.1 -32.2 75 0.0 25 23   101.72   -43 LegendNANA
04:00 -28.2 -31.7 72 0.0 27 14   101.79   -39 LegendNANA
05:00 -26.0 -29.3 73 0.0 27 11   101.84   -35 LegendNANA
06:00 -27.8 -31.2 73 0.0 24 11   101.91   -37 LegendNANA
07:00 -28.6 -31.9 73 0.0 24 18   101.93   -41 LegendNANA
08:00 -27.8 -31.4 71 0.0 25 18   101.97   -40 LegendNANA
09:00 -26.6 -30.2 72 0.0 25 12   102.02   -36 LegendNANA
10:00 -25.0 -28.9 70 0.0 27 14   102.06   -35 LegendNANA
11:00 -24.7 -28.2 72 0.0 26 16   102.08   -35 LegendNANA
12:00 -23.5 -27.8 68 0.0 30 23   102.09   -36 LegendNANA
13:00 -22.9 -27.3 68 0.0 31 29   102.16   -36 LegendNANA
14:00 -22.4 -26.6 69 0.0 31 29   102.20   -36 LegendNANA
15:00 -22.5 -26.5 70 0.0 30 18   102.31   -33 LegendNANA
16:00 -23.0 -26.4 74 0.0 30 30   102.37   -36 LegendNANA
17:00 -24.5 -27.7 75 0.0 23 17   102.54   -35 LegendNANA
18:00 -24.5 -27.9 73 0.0 27 22   102.53   -37 LegendNANA
19:00 -24.8 -28.0 74 0.0 26 21   102.57   -37 LegendNANA
20:00 -25.6 -28.9 74 0.0 27 27   102.58   -39 LegendNANA
21:00 -24.9 -28.2 73 0.0 25 30   102.61   -39 LegendNANA
22:00 -25.8 -29.5 71 0.0 25 23   102.65   -39 LegendNANA
23:00 -26.4 -30.1 71 0.0 23 15   102.73   -37 LegendNANA

Notes on Data Quality.

Legend

  • E = Estimated
  • M = Missing
  • NA = Not Available*
  • [empty] = Indicates an unobserved value
Date modified: